Location: Dittelbrunn
(50.0738°N, 10.2196°E)
Time: 07:07:52
(UTC+00:00)

IGS 5A - Pass Details

Date: 18 September 2020
Orbit: 583 x 588 km, 97.6° (Epoch: 09 October)

Event Time Altitude Azimuth Distance (km) Brightness Sun altitude
Exits shadow 19:37:08 36° 54° (NE) 944 4.3 -21.0°
Drops below altitude 10° 19:40:33 10° 1° (N) 1,919 6.4 -21.5°
Sets 19:42:50 0° 354° (N) 2,824 7.5 -21.8°
